Cork, Ireland

5:38 AM IST on March 29, 2017 (GMT +0100)
Cork

Weather History for EICK - February, 2013

Change the Weather History Date:

Wednesday, February 27, 2013

  Actual Average Record
Temperature  
Mean Temperature 37 °F -  
Max Temperature 41 °F 49 °F 53 °F (2007)
Min Temperature 33 °F 38 °F 28 °F (2004)
Degree Days  
Heating Degree Days 28    
Moisture  
Dew Point 37 °F    
Average Humidity 90    
Maximum Humidity 100    
Minimum Humidity 80    
Precipitation  
Precipitation 0.00 in 0.13 in - ()
Sea Level Pressure  
Sea Level Pressure 30.59 in    
Wind  
Wind Speed 8 mph ()    
Max Wind Speed 12 mph    
Max Gust Speed -    
Visibility 5.9 miles    
Events      
Averages and records for this station are not official NWS values.
T = Trace of Precipitation, MM = Missing Value Source: Averaged Metar Reports

Daily Weather History Graph

Daily Weather History Graph

Search for Another Location

Airport or City:

Trip Planner

Search our weather history database for the weather conditions in past years. The results will help you decide how hot, cold, wet, or windy it might be!

Date:

Astronomy

Feb. 27, 2013 Rise Set
Actual Time 7:23 AM GMT 6:10 PM GMT
Civil Twilight 6:49 AM GMT 6:44 PM GMT
Nautical Twilight 6:10 AM GMT 7:23 PM GMT
Astronomical Twilight 5:31 AM GMT 8:02 PM GMT
Moon 8:39 PM GMT (2/27) 7:33 AM GMT (2/27)
Length of Visible Light 11h 54m
Length of Day
10h 46m
Full, 97% of the Moon is Illuminated
Feb 27
Full
Mar 4
Last Quarter
Mar 11
New
Mar 19
First Quarter
Mar 27
Full

Hourly Weather History & Observations

Time (GMT) Temp. Windchill Dew Point Humidity Pressure Visibility Wind Dir Wind Speed Gust Speed Precip Events Conditions
12:00 AM 40 °F - 38 °F 88% 30.64 in 9 mi ENE 8.9 mph - -   Mostly Cloudy
12:00 AM 41.0 °F 35.8 °F 37.4 °F 87% 30.60 in 6.2 mi ENE 8.1 mph - N/A   Mostly Cloudy
12:30 AM 41.0 °F 34.7 °F 37.4 °F 87% 30.60 in 6.2 mi NE 10.4 mph - N/A   Mostly Cloudy
1:00 AM 41.0 °F 35.2 °F 37.4 °F 87% 30.60 in 6.2 mi NE 9.2 mph - N/A   Mostly Cloudy
1:30 AM 41.0 °F 35.2 °F 37.4 °F 87% 30.60 in 6.2 mi NNE 9.2 mph - N/A   Mostly Cloudy
2:00 AM 39.2 °F 34.2 °F 37.4 °F 93% 30.60 in 6.2 mi NE 6.9 mph - N/A   Mostly Cloudy
2:30 AM 39.2 °F 33.6 °F 37.4 °F 93% 30.60 in 6.2 mi NNE 8.1 mph - N/A   Mostly Cloudy
3:00 AM 39.2 °F 33.6 °F 37.4 °F 93% 30.60 in 6.2 mi NNE 8.1 mph - N/A   Overcast
3:30 AM 39.2 °F 35.9 °F 37.4 °F 93% 30.60 in 6.2 mi NNE 4.6 mph - N/A   Overcast
4:00 AM 39.2 °F 35.9 °F 37.4 °F 93% 30.60 in 6.2 mi North 4.6 mph - N/A   Mostly Cloudy
4:30 AM 39.2 °F 35.0 °F 37.4 °F 93% 30.60 in 6.2 mi North 5.8 mph - N/A   Overcast
5:00 AM 39.2 °F 35.0 °F 37.4 °F 93% 30.60 in 6.2 mi North 5.8 mph - N/A   Overcast
5:30 AM 39.2 °F 34.2 °F 37.4 °F 93% 30.60 in 6.2 mi North 6.9 mph - N/A   Overcast
6:00 AM 39 °F - 36 °F 87% 30.63 in 9 mi North 6.7 mph - -   Overcast
6:00 AM 39.2 °F 34.2 °F 37.4 °F 93% 30.60 in 6.2 mi North 6.9 mph - N/A   Overcast
6:30 AM 39.2 °F 34.2 °F 37.4 °F 93% 30.60 in 6.2 mi North 6.9 mph - N/A   Overcast
7:00 AM 39.2 °F 34.2 °F 37.4 °F 93% 30.60 in 6.2 mi North 6.9 mph - N/A   Overcast
7:30 AM 39.2 °F 34.2 °F 37.4 °F 93% 30.60 in 6.2 mi North 6.9 mph - N/A   Overcast
8:00 AM 39.2 °F 34.2 °F 37.4 °F 93% 30.60 in 6.2 mi North 6.9 mph - N/A   Overcast
8:30 AM 39.2 °F 33.6 °F 37.4 °F 93% 30.60 in 6.2 mi North 8.1 mph - N/A   Overcast
9:00 AM 39.2 °F 32.5 °F 37.4 °F 93% 30.60 in 6.2 mi North 10.4 mph - N/A   Overcast
9:30 AM 39.2 °F 33.0 °F 37.4 °F 93% 30.63 in 6.2 mi NNE 9.2 mph - N/A   Overcast
10:00 AM 39.2 °F 33.6 °F 37.4 °F 93% 30.63 in 6.2 mi NNE 8.1 mph - N/A   Overcast
10:30 AM 41.0 °F 36.4 °F 37.4 °F 87% 30.63 in 6.2 mi NNE 6.9 mph - N/A   Mostly Cloudy
11:00 AM 41.0 °F 35.8 °F 37.4 °F 87% 30.63 in 6.2 mi North 8.1 mph - N/A   Mostly Cloudy
11:30 AM 41.0 °F 35.8 °F 37.4 °F 87% 30.63 in 6.2 mi NNE 8.1 mph - N/A   Mostly Cloudy
12:00 PM 41 °F - 37 °F 80% 30.65 in 9 mi NNE 11.2 mph - -   Overcast
12:00 PM 41.0 °F 34.7 °F 37.4 °F 87% 30.63 in 6.2 mi NNE 10.4 mph - N/A   Mostly Cloudy
12:30 PM 41.0 °F 34.7 °F 37.4 °F 87% 30.60 in 6.2 mi NNE 10.4 mph - N/A   Mostly Cloudy
1:00 PM 41.0 °F 34.3 °F 37.4 °F 87% 30.60 in 6.2 mi NNE 11.5 mph - N/A   Mostly Cloudy
1:30 PM 41.0 °F 35.2 °F 37.4 °F 87% 30.60 in 6.2 mi North 9.2 mph - N/A   Overcast
2:00 PM 41.0 °F 35.2 °F 37.4 °F 87% 30.60 in 6.2 mi NNE 9.2 mph - N/A   Overcast
2:30 PM 41.0 °F 35.2 °F 37.4 °F 87% 30.60 in 6.2 mi NNE 9.2 mph - N/A   Mostly Cloudy
3:00 PM 41.0 °F 35.2 °F 37.4 °F 87% 30.57 in 6.2 mi North 9.2 mph - N/A   Mostly Cloudy
3:30 PM 41.0 °F 35.2 °F 35.6 °F 81% 30.57 in 6.2 mi NNE 9.2 mph - N/A   Mostly Cloudy
4:00 PM 41.0 °F 35.8 °F 35.6 °F 81% 30.57 in 6.2 mi NNE 8.1 mph - N/A   Mostly Cloudy
4:30 PM 41.0 °F 35.8 °F 37.4 °F 87% 30.57 in 6.2 mi NNE 8.1 mph - N/A   Mostly Cloudy
5:00 PM 41.0 °F 35.2 °F 37.4 °F 87% 30.57 in 6.2 mi North 9.2 mph - N/A   Mostly Cloudy
6:00 PM 40 °F - 36 °F 81% 30.58 in 6 mi North 8.9 mph - -   Mist
6:00 PM 39.2 °F 33.0 °F 35.6 °F 87% 30.54 in 5.6 mi North 9.2 mph - N/A   Scattered Clouds
6:30 PM 39.2 °F 34.2 °F 35.6 °F 87% 30.57 in 4.3 mi North 6.9 mph - N/A   Partly Cloudy
7:00 PM 37.4 °F 32.1 °F 35.6 °F 93% 30.57 in 4.3 mi North 6.9 mph - N/A   Partly Cloudy
7:30 PM 37.4 °F 31.4 °F 35.6 °F 93% 30.57 in 4.3 mi North 8.1 mph - N/A   Partly Cloudy
8:00 PM 37.4 °F 31.4 °F 33.8 °F 87% 30.57 in 3.7 mi North 8.1 mph - N/A   Partly Cloudy
8:30 PM 37.4 °F 30.8 °F 35.6 °F 93% 30.57 in 3.7 mi NNW 9.2 mph - N/A   Partly Cloudy
9:00 PM 35.6 °F 28.6 °F 33.8 °F 93% 30.57 in 3.1 mi NNW 9.2 mph - N/A   Partly Cloudy
9:30 PM 35.6 °F 28.6 °F 33.8 °F 93% 30.57 in 3.1 mi NNW 9.2 mph - N/A   Partly Cloudy
10:00 PM 35.6 °F 27.5 °F 33.8 °F 93% 30.57 in - North 11.5 mph - N/A   Partly Cloudy
10:30 PM 35.6 °F 28.6 °F 33.8 °F 93% 30.57 in - North 9.2 mph - N/A   Partly Cloudy
11:00 PM 33.8 °F 26.4 °F 33.8 °F 100% 30.57 in 2.8 mi North 9.2 mph - N/A   Scattered Clouds
11:30 PM 33.8 °F 26.4 °F 33.8 °F 100% 30.54 in 2.8 mi NNE 9.2 mph - N/A   Partly Cloudy